This is the latest recevied weather packets stored in our database for station/object DJ2DS-13. If no packets are shown the sender has not sent any weather packets the latest 10 day(s).
| Time | Temp. | Humidity | Pressure | Rain* | Wind** | Luminosity | Snow |
|---|---|---|---|---|---|---|---|
| 1777830119 | 14.44° C | 91% | 1007.7 hPa | 0.51 mm | - | 14 W/m² | - |
| 1777829820 | 14.44° C | 91% | 1007.6 hPa | 0.51 mm | - | 16 W/m² | - |
| 1777829519 | 14.44° C | 91% | 1007.7 hPa | 0.51 mm | - | 18 W/m² | - |
| 1777829217 | 14.44° C | 91% | 1007.7 hPa | 0.76 mm | - | 33 W/m² | - |
| 1777828915 | 14.44° C | 91% | 1007.8 hPa | 0.76 mm | - | 33 W/m² | - |
| 1777828612 | 14.44° C | 91% | 1007.8 hPa | 1.27 mm | - | 42 W/m² | - |
| 1777828312 | 14.44° C | 91% | 1007.8 hPa | 1.52 mm | - | 42 W/m² | - |
| 1777828011 | 14.44° C | 91% | 1007.8 hPa | 2.03 mm | - | 26 W/m² | - |
| 1777827710 | 13.89° C | 91% | 1007.8 hPa | 2.29 mm | - | 30 W/m² | - |
| 1777827411 | 13.89° C | 91% | 1007.7 hPa | 2.54 mm | - | 23 W/m² | - |
| 1777827110 | 13.89° C | 91% | 1007.7 hPa | 2.79 mm | - | 26 W/m² | - |
| 1777826812 | 14.44° C | 91% | 1007.8 hPa | 2.54 mm | - | 30 W/m² | - |
| 1777826509 | 14.44° C | 91% | 1007.7 hPa | 2.54 mm | - | 19 W/m² | - |
| 1777826206 | 14.44° C | 91% | 1007.7 hPa | 2.54 mm | - | 19 W/m² | - |
| 1777825906 | 14.44° C | 91% | 1007.7 hPa | 2.29 mm | - | 9 W/m² | - |
| 1777825606 | 14.44° C | 91% | 1007.6 hPa | 2.29 mm | - | 11 W/m² | - |
| 1777825307 | 14.44° C | 91% | 1007.6 hPa | 2.03 mm | - | 23 W/m² | - |
| 1777825007 | 14.44° C | 91% | 1007.5 hPa | 1.52 mm | - | 21 W/m² | - |
| 1777824707 | 13.89° C | 91% | 1007.7 hPa | 1.27 mm | - | 12 W/m² | - |
| 1777824405 | 14.44° C | 91% | 1007.7 hPa | 0.76 mm | - | 16 W/m² | - |
| 1777824105 | 14.44° C | 91% | 1007.6 hPa | 0.76 mm | - | 21 W/m² | - |
| 1777823805 | 14.44° C | 90% | 1007.6 hPa | 0.51 mm | - | 19 W/m² | - |
| 1777823505 | 14.44° C | 90% | 1007.7 hPa | 0.51 mm | - | 12 W/m² | - |
| 1777823203 | 14.44° C | 90% | 1007.7 hPa | 0.51 mm | - | 12 W/m² | - |
| 1777822903 | 14.44° C | 90% | 1007.5 hPa | 0.76 mm | - | 28 W/m² | - |
* Rain latest hour (hover to see other rain measurements)
** Current wind speed in m/s (hover to see current wind gust speed)